Weather History for KDVO - May, 2013

Change the Weather History Date:

Friday, May 3, 2013

  Actual Average (KAPC) Record (KAPC)
Temperature  
Mean Temperature 66 °F 57 °F  
Max Temperature 89 °F 70 °F 88 °F (2013)
Min Temperature 44 °F 44 °F 36 °F (2008)
Degree Days  
Heating Degree Days 0    
Month to date heating degree days  
Since 1 July heating degree days  
Cooling Degree Days 2    
Month to date cooling degree days  
Year to date cooling degree days  
Growing Degree Days 16 (Base 50)    
Moisture  
Dew Point 40 °F    
Average Humidity 45    
Maximum Humidity 81    
Minimum Humidity 16    
Precipitation  
Precipitation 0.00 in - 0.58 in (2003)
Month to date precipitation  
Year to date precipitation  
Sea Level Pressure  
Sea Level Pressure 29.95 in    
Wind  
Wind Speed 2 mph (North)    
Max Wind Speed 12 mph    
Max Gust Speed 17 mph    
Visibility 10 miles    
Events      
T = Trace of Precipitation, MM = Missing Value Source: NWS Daily Summary

Daily Weather History Graph

Daily Weather History Graph

Search for Another Location

Airport or City:

Trip Planner

Search our weather history database for the weather conditions in past years. The results will help you decide how hot, cold, wet, or windy it might be!

Date:

Astronomy

May. 03, 2013 Rise Set
Actual Time 6:11 AM PDT 8:03 PM PDT
Civil Twilight 5:42 AM PDT 8:32 PM PDT
Nautical Twilight 5:07 AM PDT 9:07 PM PDT
Astronomical Twilight 4:30 AM PDT 9:44 PM PDT
Moon 2:33 AM PDT (5/3) 2:09 PM PDT (5/3)
Length of Visible Light 14h 49m
Length of Day
13h 52m
Waning Crescent, 36% of the Moon is Illuminated
May 3
Waning Crescent
May 9
New
May 17
First Quarter
May 24
Full
May 31
Last Quarter

Hourly Weather History & Observations

Time (PDT) Temp. Windchill Dew Point Humidity Pressure Visibility Wind Dir Wind Speed Gust Speed Precip Events Conditions
12:15 AM 55.4 °F - 37.4 °F 51% 30.09 in 10.0 mi Calm Calm - N/A   Clear
12:35 AM 55.4 °F - 35.6 °F 47% 30.08 in 10.0 mi Calm Calm - N/A   Clear
12:55 AM 55.4 °F - 35.6 °F 47% 30.08 in 10.0 mi Calm Calm - N/A   Clear
1:15 AM 55.4 °F - 37.4 °F 51% 30.08 in 10.0 mi Calm Calm - N/A   Clear
1:35 AM 50.0 °F - 39.2 °F 66% 30.08 in 10.0 mi Calm Calm - N/A   Clear
1:55 AM 53.6 °F - 37.4 °F 54% 30.07 in 10.0 mi Calm Calm - N/A   Clear
2:15 AM 53.6 °F - 39.2 °F 58% 30.07 in 10.0 mi Calm Calm - N/A   Clear
2:35 AM 50.0 °F - 37.4 °F 62% 30.06 in 10.0 mi Calm Calm - N/A   Clear
2:55 AM 53.6 °F - 37.4 °F 54% 30.06 in 10.0 mi Calm Calm - N/A   Clear
3:15 AM 51.8 °F - 37.4 °F 58% 30.05 in 10.0 mi Calm Calm - N/A   Clear
3:35 AM 48.2 °F - 37.4 °F 66% 30.05 in 10.0 mi Calm Calm - N/A   Clear
3:55 AM 50.0 °F - 37.4 °F 62% 30.05 in 10.0 mi Calm Calm - N/A   Clear
4:15 AM 50.0 °F - 37.4 °F 62% 30.04 in 10.0 mi Calm Calm - N/A   Clear
4:35 AM 48.2 °F - 37.4 °F 66% 30.04 in 10.0 mi Calm Calm - N/A   Clear
4:55 AM 48.2 °F - 35.6 °F 62% 30.04 in 10.0 mi Calm Calm - N/A   Clear
5:15 AM 46.4 °F - 35.6 °F 66% 30.04 in 10.0 mi Calm Calm - N/A   Clear
5:35 AM 44.6 °F - 35.6 °F 71% 30.04 in 10.0 mi Calm Calm - N/A   Clear
5:55 AM 44.6 °F - 39.2 °F 81% 30.03 in 10.0 mi Calm Calm - N/A   Clear
6:15 AM 46.4 °F - 39.2 °F 76% 30.03 in 9.0 mi Calm Calm - N/A   Clear
6:35 AM 46.4 °F 44.3 °F 39.2 °F 76% 30.03 in 10.0 mi NNW 4.6 mph - N/A   Clear
6:55 AM 46.4 °F 44.3 °F 37.4 °F 71% 30.04 in 10.0 mi North 4.6 mph - N/A   Clear
7:15 AM 48.2 °F - 41.0 °F 76% 30.04 in 10.0 mi North 3.5 mph - N/A   Clear
7:35 AM 50.0 °F - 41.0 °F 71% 30.04 in 10.0 mi NNW 3.5 mph - N/A   Clear
7:55 AM 53.6 °F - 41.0 °F 62% 30.04 in 9.0 mi Calm Calm - N/A   Clear
8:15 AM 55.4 °F - 44.6 °F 67% 30.03 in 9.0 mi Calm Calm - N/A   Clear
8:35 AM 59.0 °F - 44.6 °F 59% 30.03 in 10.0 mi Calm Calm - N/A   Clear
8:55 AM 62.6 °F - 44.6 °F 52% 30.02 in 10.0 mi Calm Calm - N/A   Clear
9:15 AM 64.4 °F - 44.6 °F 49% 30.01 in 10.0 mi Calm Calm - N/A   Clear
9:35 AM 66.2 °F - 42.8 °F 43% 30.01 in 10.0 mi Calm Calm - N/A   Clear
9:55 AM 68.0 °F - 44.6 °F 43% 30.00 in 10.0 mi Calm Calm - N/A   Clear
10:15 AM 71.6 °F - 44.6 °F 38% 29.99 in 10.0 mi Calm Calm - N/A   Clear
10:35 AM 73.4 °F - 44.6 °F 36% 29.99 in 10.0 mi Calm Calm - N/A   Clear
10:55 AM 73.4 °F - 42.8 °F 33% 29.98 in 10.0 mi Calm Calm - N/A   Clear
11:15 AM 77.0 °F - 42.8 °F 29% 29.98 in 10.0 mi Calm Calm - N/A   Clear
11:35 AM 77.0 °F - 41.0 °F 28% 29.97 in 10.0 mi South 3.5 mph - N/A   Clear
11:55 AM 78.8 °F - 41.0 °F 26% 29.97 in 10.0 mi SW 3.5 mph - N/A   Clear
12:15 PM 80.6 °F - 44.6 °F 28% 29.96 in 10.0 mi Calm Calm - N/A   Clear
12:35 PM 82.4 °F - 44.6 °F 26% 29.95 in 10.0 mi SE 4.6 mph - N/A   Clear
12:55 PM 82.4 °F - 39.2 °F 21% 29.94 in 10.0 mi SSE 4.6 mph - N/A   Clear
1:15 PM 84.2 °F - 37.4 °F 19% 29.93 in - SE 5.8 mph - N/A   Clear
1:35 PM 86.0 °F - 37.4 °F 18% 29.92 in 10.0 mi SE 4.6 mph - N/A   Clear
1:55 PM 86.0 °F - 37.4 °F 18% 29.91 in 10.0 mi SSE 4.6 mph - N/A   Clear
2:15 PM 86.0 °F - 35.6 °F 17% 29.91 in 10.0 mi South 5.8 mph - N/A   Clear
2:35 PM 87.8 °F - 35.6 °F 16% 29.90 in 10.0 mi South 4.6 mph - N/A   Clear
2:55 PM 86.0 °F - 37.4 °F 18% 29.89 in 10.0 mi SSW 3.5 mph - N/A   Clear
3:15 PM 87.8 °F - 41.0 °F 19% 29.88 in 10.0 mi SW 5.8 mph - N/A   Clear
3:35 PM 89.6 °F - 39.2 °F 17% 29.87 in - SE 5.8 mph - N/A   Clear
3:55 PM 89.6 °F - 39.2 °F 17% 29.86 in - ESE 5.8 mph - N/A   Clear
4:15 PM 89.6 °F - 39.2 °F 17% 29.85 in - Calm Calm - N/A   Clear
4:35 PM 87.8 °F - 46.4 °F 24% 29.85 in - SW 8.1 mph - N/A   Clear
4:55 PM 86.0 °F - 42.8 °F 22% 29.85 in - WSW 5.8 mph - N/A   Clear
5:15 PM 84.2 °F - 35.6 °F 18% 29.85 in 10.0 mi NNW 11.5 mph - N/A   Clear
5:35 PM 82.4 °F - 32.0 °F 16% 29.84 in 10.0 mi North 5.8 mph - N/A   Clear
5:55 PM 82.4 °F - 32.0 °F 16% 29.84 in 10.0 mi North 9.2 mph - N/A   Clear
6:15 PM 80.6 °F - 30.2 °F 16% 29.84 in 10.0 mi NNW 10.4 mph - N/A   Clear
6:35 PM 78.8 °F - 30.2 °F 17% 29.84 in 10.0 mi North 9.2 mph 17.3 mph N/A   Clear
6:55 PM 77.0 °F - 35.6 °F 22% 29.83 in 10.0 mi North 9.2 mph - N/A   Clear
7:15 PM 73.4 °F - 37.4 °F 27% 29.83 in 10.0 mi North 10.4 mph - N/A   Clear
7:35 PM 71.6 °F - 37.4 °F 29% 29.83 in 10.0 mi NW 5.8 mph - N/A   Clear
7:55 PM 66.2 °F - 39.2 °F 37% 29.83 in 10.0 mi NNW 4.6 mph - N/A   Clear
8:15 PM 66.2 °F - 39.2 °F 37% 29.83 in 10.0 mi ENE 3.5 mph - N/A   Clear
8:35 PM 60.8 °F - 42.8 °F 52% 29.83 in 10.0 mi North 6.9 mph - N/A   Clear
8:55 PM 59.0 °F - 44.6 °F 59% 29.83 in 10.0 mi North 5.8 mph - N/A   Clear
9:15 PM 57.2 °F - 42.8 °F 59% 29.83 in 10.0 mi North 8.1 mph - N/A   Clear
9:35 PM 57.2 °F - 44.6 °F 63% 29.83 in 10.0 mi North 8.1 mph - N/A   Unknown
9:55 PM 57.2 °F - 42.8 °F 59% 29.83 in 10.0 mi NNW 5.8 mph - N/A   Unknown
10:15 PM 55.4 °F - 42.8 °F 63% 29.83 in 10.0 mi North 4.6 mph - N/A   Unknown
10:35 PM 55.4 °F - 42.8 °F 63% 29.83 in 10.0 mi North 8.1 mph - N/A   Unknown
10:55 PM 55.4 °F - 42.8 °F 63% 29.82 in 10.0 mi North 4.6 mph - N/A   Unknown
11:15 PM 53.6 °F - 42.8 °F 67% 29.82 in 10.0 mi North 6.9 mph - N/A   Unknown
11:35 PM 55.4 °F - 41.0 °F 58% 29.82 in 10.0 mi North 6.9 mph - N/A   Unknown
11:55 PM 53.6 °F - 42.8 °F 67% 29.81 in 10.0 mi NW 3.5 mph - N/A   Unknown